map of DXB home
Great Circle Mapper logo
DXB - Airport
Location
City:  Dubai, United Arab Emirates
Name:Dubai International Airport
ICAO / IATA:OMDB / DXB

Details
Type:Airport (Aerodrome, Airfield)
Use:Public/Civil, International (customs port of entry)
Latitude:2515'10"N (25.252778)
Longitude:5521'52"E (55.364444)
Datum:WGS 1984
Elevation:62 ft (19 m)
Variation:1.9E (WMM2010 magnetic declination)
Runways:2
Longest:13124 × 197 ft (4000 × 60 m), paved

Time
Time Zone:UTC+4
Local Time:

Weather
METAR:OMDB 290900Z 29014KT 260V320 9999 FEW040 28/15 Q1015 NOSIG
TAF:OMDB 290459Z 2906/3012 30013KT 9999 FEW030 PROB30
TEMPO 2906/2908 29015G30KT 3000 SHRA FEW030TCU PROB30 2920/3005 23005KT

Related Locations
Nearby:
Farthest:GMR: 11782 mi / 18962 km
Mangareva [Totegegie], Gambier Islands, PF

Find:

   beyond  
but within

Other Information
Maps:
NOTAMs:
Links:
Sources:

  
flag of United Arab Emirates   

Airport Diagram

Airport diagram for DXB

Airport diagram (OBSOLETE) from NGA

Sectional Chart

Flight Planning
at skyvector.com

Satellite Image

Google Maps Satellite View

 

Copyright © 2004-2014 Karl L. Swartz. All rights reserved.
The Great Circle Mapper name and logo are trademarks of the Great Circle Mapper.
All other trademarks mentioned herein belong to their respective owners.
Please see credits for attibutions and further copyright information.

  Follow gcmap on Facebook Follow gcmap on Twitter

hCard Microformat

Geo Microformat